TimeCST,TemperatureF,Dew PointF,Humidity,Sea Level PressureIn,VisibilityMPH,Wind Direction,Wind SpeedMPH,Gust SpeedMPH,PrecipitationIn,Events,Conditions,WindDirDegrees,DateUTC
12:15 AM,-1.3,-8.0,73,30.42,10.0,SE,8.1,-,N/A,,Clear,140,2013-12-07 06:15:00
12:35 AM,-0.0,-7.2,72,30.41,10.0,SSE,11.5,-,N/A,,Clear,150,2013-12-07 06:35:00
12:55 AM,-0.2,-7.8,70,30.41,10.0,SE,8.1,-,N/A,,Clear,140,2013-12-07 06:55:00
1:15 AM,-2.2,-8.9,73,30.40,10.0,SSE,6.9,-,N/A,,Clear,150,2013-12-07 07:15:00
1:35 AM,-1.8,-8.5,73,30.39,10.0,Calm,Calm,-,N/A,,Mostly Cloudy,0,2013-12-07 07:35:00
1:55 AM,-0.6,-7.6,72,30.39,10.0,WSW,3.5,-,N/A,,Overcast,240,2013-12-07 07:55:00
2:15 AM,1.8,-5.8,71,30.39,10.0,Calm,Calm,-,N/A,,Overcast,0,2013-12-07 08:15:00
2:35 AM,5.7,-4.0,64,30.39,10.0,SSE,6.9,-,N/A,,Overcast,160,2013-12-07 08:35:00
2:55 AM,5.5,-4.2,64,30.39,10.0,SSE,5.8,-,N/A,,Overcast,150,2013-12-07 08:55:00
3:15 AM,5.7,-5.4,60,30.39,10.0,SE,5.8,-,N/A,,Overcast,130,2013-12-07 09:15:00
3:35 AM,5.7,-5.3,61,30.38,10.0,SE,9.2,-,N/A,,Overcast,130,2013-12-07 09:35:00
3:55 AM,5.7,-5.1,61,30.36,10.0,SE,13.8,-,N/A,,Overcast,140,2013-12-07 09:55:00
4:15 AM,5.9,-5.8,59,30.35,10.0,SE,16.1,-,N/A,,Overcast,140,2013-12-07 10:15:00
4:35 AM,5.9,-6.7,56,30.35,10.0,SE,17.3,-,N/A,,Overcast,140,2013-12-07 10:35:00
4:55 AM,6.1,-6.2,57,30.35,10.0,SE,13.8,-,N/A,,Overcast,140,2013-12-07 10:55:00
5:15 AM,6.3,-6.5,56,30.34,10.0,SSE,18.4,-,N/A,,Overcast,150,2013-12-07 11:15:00
5:35 AM,6.4,-6.7,55,30.34,10.0,SSE,17.3,-,N/A,,Overcast,150,2013-12-07 11:35:00
5:55 AM,6.4,-7.1,54,30.34,10.0,SSE,20.7,-,N/A,,Overcast,150,2013-12-07 11:55:00
6:15 AM,6.6,-7.6,52,30.34,10.0,SSE,16.1,-,N/A,,Overcast,150,2013-12-07 12:15:00
6:35 AM,6.6,-7.6,52,30.34,10.0,SSE,17.3,25.3,N/A,,Overcast,160,2013-12-07 12:35:00
6:55 AM,6.6,-7.6,52,30.33,10.0,SSE,16.1,24.2,N/A,,Overcast,150,2013-12-07 12:55:00
7:15 AM,6.6,-7.8,52,30.33,10.0,SSE,17.3,24.2,N/A,,Overcast,150,2013-12-07 13:15:00
7:35 AM,6.8,-7.6,52,30.34,10.0,SSE,16.1,21.9,N/A,,Overcast,150,2013-12-07 13:35:00
7:55 AM,6.8,-7.6,52,30.34,10.0,SSE,16.1,-,N/A,,Overcast,150,2013-12-07 13:55:00
8:15 AM,6.8,-7.6,52,30.33,10.0,SSE,19.6,23.0,N/A,,Overcast,150,2013-12-07 14:15:00
8:35 AM,6.8,-7.6,52,30.33,10.0,SSE,18.4,25.3,N/A,,Overcast,150,2013-12-07 14:35:00
8:55 AM,6.8,-7.1,53,30.33,10.0,SSE,20.7,-,N/A,,Overcast,150,2013-12-07 14:55:00
9:15 AM,7.0,-7.1,53,30.33,10.0,SSE,21.9,26.5,N/A,,Overcast,150,2013-12-07 15:15:00
9:35 AM,7.3,-7.6,51,30.33,10.0,SSE,21.9,-,N/A,,Overcast,160,2013-12-07 15:35:00
9:55 AM,7.3,-7.6,51,30.32,10.0,SSE,19.6,26.5,N/A,,Overcast,150,2013-12-07 15:55:00
10:15 AM,7.3,-7.2,51,30.32,10.0,SSE,20.7,26.5,N/A,,Overcast,150,2013-12-07 16:15:00
10:35 AM,7.7,-6.7,52,30.32,10.0,SSE,18.4,25.3,N/A,,Overcast,150,2013-12-07 16:35:00
10:55 AM,7.7,-6.3,53,30.32,10.0,SSE,21.9,25.3,N/A,,Overcast,150,2013-12-07 16:55:00
11:15 AM,8.1,-6.5,52,30.31,10.0,SE,21.9,-,N/A,,Overcast,140,2013-12-07 17:15:00
11:35 AM,8.4,-6.5,51,30.30,10.0,SSE,21.9,25.3,N/A,,Overcast,160,2013-12-07 17:35:00
11:55 AM,8.2,-6.0,52,30.28,10.0,SSE,19.6,25.3,N/A,,Overcast,150,2013-12-07 17:55:00
12:15 PM,8.6,-5.6,53,30.26,10.0,SSE,19.6,24.2,N/A,,Overcast,150,2013-12-07 18:15:00
12:35 PM,8.8,-5.4,53,30.24,10.0,SSE,17.3,25.3,N/A,,Overcast,150,2013-12-07 18:35:00
12:55 PM,8.6,-4.9,54,30.24,10.0,SSE,19.6,23.0,N/A,,Overcast,160,2013-12-07 18:55:00
1:15 PM,8.4,-4.5,56,30.21,10.0,SE,15.0,23.0,N/A,,Overcast,140,2013-12-07 19:15:00
1:35 PM,8.6,-4.5,55,30.19,10.0,SSE,19.6,25.3,N/A,,Overcast,150,2013-12-07 19:35:00
1:55 PM,8.6,-4.0,57,30.17,10.0,SE,20.7,-,N/A,,Overcast,140,2013-12-07 19:55:00
2:15 PM,8.6,-3.8,57,30.15,10.0,SE,18.4,23.0,N/A,,Overcast,130,2013-12-07 20:15:00
2:35 PM,9.1,-3.3,57,30.13,10.0,SE,20.7,25.3,N/A,,Overcast,140,2013-12-07 20:35:00
2:55 PM,9.0,-2.9,59,30.12,10.0,SE,19.6,25.3,N/A,Snow,Light Snow,140,2013-12-07 20:55:00
3:15 PM,9.0,-2.2,61,30.12,10.0,SE,17.3,-,N/A,Snow,Light Snow,140,2013-12-07 21:15:00
3:35 PM,8.6,-1.7,63,30.10,10.0,SSE,18.4,-,N/A,Snow,Light Snow,150,2013-12-07 21:35:00
3:55 PM,8.6,-0.8,66,30.10,7.0,SE,18.4,21.9,N/A,Snow,Light Snow,140,2013-12-07 21:55:00
4:15 PM,8.8,-0.4,66,30.09,5.0,SE,17.3,-,N/A,Snow,Light Snow,140,2013-12-07 22:15:00
4:35 PM,8.6,0.3,69,30.08,5.0,ESE,16.1,21.9,N/A,Snow,Light Snow,120,2013-12-07 22:35:00
4:55 PM,8.6,1.4,73,30.08,3.0,SE,17.3,-,N/A,Snow,Light Snow,130,2013-12-07 22:55:00
5:15 PM,8.4,2.1,76,30.07,3.0,SE,18.4,-,N/A,Snow,Light Snow,130,2013-12-07 23:15:00
5:35 PM,8.1,1.9,76,30.06,4.0,SE,18.4,23.0,N/A,Snow,Light Snow,130,2013-12-07 23:35:00
5:55 PM,7.5,1.4,76,30.06,4.0,SE,19.6,-,N/A,Snow,Light Snow,140,2013-12-07 23:55:00
6:15 PM,7.5,0.7,74,30.06,7.0,SE,18.4,24.2,N/A,Snow,Light Snow,130,2013-12-08 00:15:00
6:35 PM,7.5,-0.0,71,30.06,10.0,SE,17.3,-,N/A,Snow,Light Snow,140,2013-12-08 00:35:00
6:55 PM,7.3,-0.4,71,30.07,10.0,SE,18.4,24.2,N/A,Snow,Light Snow,140,2013-12-08 00:55:00
7:15 PM,7.3,-0.0,72,30.07,7.0,SE,18.4,-,N/A,Snow,Light Snow,140,2013-12-08 01:15:00
7:35 PM,7.0,0.9,76,30.07,5.0,SE,16.1,21.9,N/A,Snow,Light Snow,130,2013-12-08 01:35:00
7:55 PM,7.0,1.6,79,30.07,4.0,SE,13.8,-,N/A,Snow,Light Snow,130,2013-12-08 01:55:00
8:15 PM,7.2,2.1,80,30.05,4.0,SE,13.8,-,N/A,Snow,Light Snow,130,2013-12-08 02:15:00
8:35 PM,7.2,1.9,79,30.05,4.0,SE,15.0,-,N/A,Snow,Light Snow,130,2013-12-08 02:35:00
8:55 PM,7.0,1.9,80,30.05,5.0,SE,12.7,17.3,N/A,Snow,Light Snow,130,2013-12-08 02:55:00
9:15 PM,6.8,1.4,79,30.04,7.0,SE,11.5,18.4,N/A,Snow,Light Snow,130,2013-12-08 03:15:00
9:35 PM,6.8,1.4,79,30.03,10.0,ESE,15.0,-,N/A,Snow,Light Snow,120,2013-12-08 03:35:00
9:55 PM,6.8,1.4,79,30.02,7.0,ESE,12.7,-,N/A,Snow,Light Snow,120,2013-12-08 03:55:00
10:15 PM,6.8,1.8,80,30.02,7.0,ESE,10.4,-,N/A,Snow,Light Snow,120,2013-12-08 04:15:00
10:35 PM,7.2,2.1,80,30.01,7.0,ESE,12.7,-,N/A,Snow,Light Snow,120,2013-12-08 04:35:00
10:55 PM,7.3,2.3,80,30.00,5.0,ESE,10.4,-,N/A,Snow,Light Snow,120,2013-12-08 04:55:00
11:15 PM,7.5,2.8,81,30.00,5.0,ESE,11.5,-,N/A,Snow,Light Snow,120,2013-12-08 05:15:00
11:35 PM,7.5,3.0,82,29.99,4.0,ESE,9.2,-,N/A,Snow,Light Snow,120,2013-12-08 05:35:00
11:55 PM,7.9,3.2,81,29.98,4.0,ESE,11.5,16.1,N/A,Snow,Light Snow,120,2013-12-08 05:55:00